Weather in Pankovo

Russia / Kostroma Oblast     57°43′18″N   43°14′34″E
temp.,
°C
wind,
m/s
gust,
m/s
humid.,
%
clouds,
%
prec.,
mm/h
press.,
hPa
HPBL,
m
22 may, sun
sun2200:00−1n287962 0.0 1009173
03:00−2n24955 0.0 100886
06:00+1n37705 0.0 1007524
09:00+5n4650100 0.0 10051537
12:00+5n4652100 0.0 10051625
15:00+5n4651100 0.1 10051595
18:00+5n4657100 0.1 10041311
21:00+1nnw267765 0.1 1004110
23 may, mon
mon2300:00−1nw389062 0.0 1002179
03:000nw398696 0.0 1001362
06:00+2nw4894100 0.2 1000543
09:00+2wnw3997100 0.8 998529
12:00+3nw5893100 1.0 998844
15:00+2wnw3997100 2.4 999587
18:00+1nw3898100 1.4 998437
21:00+1wnw2799100 2.0 998404
24 may, tue
tue2400:00+1nw2698100 0.6 999451
03:000nnw2496100 0.8 1000369
06:000nw1493100 0.0 1001360
09:00+2nw1384100 0.1 1003597
12:00+5n1271100 0.1 1005917
15:00+7e116399 0.3 10061112
18:00+6w1079100 0.5 1008501
21:00+3nw229484 1.0 101043
25 may, wed
wed2500:000nnw229740 0.0 101046
03:00−2wnw119622 0.0 101111
06:00+2wnw129034 0.0 1012150
09:00+7wnw227696 0.1 1011921
12:00+8wnw2364100 0.2 10111261
15:00+7nw348399 0.4 1012774
18:00+4nw2597100 1.0 1013581
21:00+4nw1397100 1.1 1013139
26 may, thu
thu2600:00+3nw229959 0.1 101358
03:00+2nw239960 0.1 101470
06:00+4nnw139297 0.0 1014177
09:00+8nw2273100 0.0 10131008
12:00+8nnw226888 0.0 1013914
15:00+13nnw225223 0.0 10111341
18:00+12nnw015768 0.0 1010948
21:00+6ene228258 0.0 100927